This is the latest recevied weather packets stored in our database for station/object HB0PJ-13. If no packets are shown the sender has not sent any weather packets the latest 10 day(s).
| Time | Temp. | Humidity | Pressure | Rain* | Wind** | Luminosity | Snow |
|---|---|---|---|---|---|---|---|
| 1778171046 | 17.22° C | 52% | 958.1 hPa | - | - | 15 W/m² | - |
| 1778170806 | 17.78° C | 51% | 958 hPa | - | - | 15 W/m² | - |
| 1778170566 | 17.78° C | 52% | 958 hPa | - | - | 75 W/m² | - |
| 1778170326 | 17.78° C | 51% | 958 hPa | - | - | 18 W/m² | - |
| 1778170206 | 18.33° C | 53% | 958 hPa | - | - | 20 W/m² | - |
| 1778170086 | 17.78° C | 53% | 958 hPa | - | - | 79 W/m² | - |
| 1778169846 | 17.78° C | 52% | 958.1 hPa | - | - | 85 W/m² | - |
| 1778169726 | 17.22° C | 56% | 958.1 hPa | - | - | 88 W/m² | - |
| 1778169606 | 17.22° C | 57% | 958.1 hPa | - | - | 55 W/m² | - |
| 1778169366 | 16.67° C | 58% | 958.2 hPa | - | - | 76 W/m² | - |
| 1778169006 | 16.11° C | 58% | 958 hPa | - | - | 37 W/m² | - |
| 1778168766 | 16.11° C | 59% | 958.1 hPa | - | - | 28 W/m² | - |
| 1778168646 | 16.11° C | 59% | 958.1 hPa | - | - | 23 W/m² | - |
| 1778168286 | 16.11° C | 60% | 958.1 hPa | - | - | 14 W/m² | - |
| 1778168166 | 15.56° C | 59% | 958.1 hPa | - | - | 13 W/m² | - |
| 1778168046 | 15.56° C | 61% | 958.1 hPa | - | - | 12 W/m² | - |
| 1778167926 | 15.56° C | 59% | 958 hPa | - | - | 12 W/m² | - |
| 1778167806 | 15.56° C | 59% | 958.1 hPa | - | - | 12 W/m² | - |
| 1778167686 | 16.11° C | 59% | 958.1 hPa | - | - | 12 W/m² | - |
| 1778167566 | 16.11° C | 57% | 958.1 hPa | - | - | 12 W/m² | - |
| 1778167326 | 16.11° C | 57% | 958 hPa | - | - | 12 W/m² | - |
| 1778167206 | 16.11° C | 57% | 958 hPa | - | - | 11 W/m² | - |
| 1778167086 | 16.11° C | 56% | 958 hPa | - | - | 11 W/m² | - |
| 1778166966 | 16.11° C | 56% | 958 hPa | - | - | 11 W/m² | - |
| 1778166846 | 16.11° C | 55% | 957.9 hPa | - | - | 12 W/m² | - |
* Rain since midnight (hover to see other rain measurements)
** Current wind speed in m/s (hover to see current wind gust speed)